Home   Weather   Cayenne   Past weeks

Flag for French Guiana Past Weather in Cayenne, French Guiana — Yesterday and Last 2 Weeks

Now
73 °F

Passing clouds.


Feels Like: 68 °F
Forecast: 77 / 82 °F
Wind: 1 mph from West

Location: Cayenne / Rochambeau

Current Time: Feb 23, 2017 at 1:58:45 am

Latest Report: Feb 23, 2017 at 1:30 am


Visibility: N/A

Pressure: 29.83 "Hg

Humidity: 100%

Dew Point: 73 °F

Location of CayenneLocation

Past Weather in Cayenne — Graph

°F

Cayenne Temperature Yesterday

Maximum temperature yesterday: 90 °F (at 2:30 pm)
Minimum temperature yesterday: 73 °F (at 6:30 am)
Average temperature yesterday: 80 °F

High & Low Weather Summary for the Past Weeks

 TemperatureHumidityPressure
High90 °F (Feb 21, 1:00 pm)100% (Feb 13, 2:30 am)29.98 "Hg (Feb 13, 2:30 am)
Low70 °F (Feb 20, 6:00 am)55% (Feb 21, 1:00 pm)29.77 "Hg (Feb 22, 3:00 pm)
Average79 °F82%29.89 "Hg
* Reported Feb 8 12:00 am — Feb 23 12:30 am, Cayenne, Weather by CustomWeather, © 2017

Note: Actual official high and low records may vary slightly from our data, if they occured in-between our weather recording intervals... More about our weather records

Advertising

Cayenne Weather History for the Previous 24 Hours

Scroll right to see more
 ConditionsComfort  
Time TempWeatherWind HumidityBarometerVisibility
12:30 am
Thu, Feb 23
73 °FPassing clouds.No wind100%29.86 "HgN/A
12:00 am75 °FClear.No wind94%29.86 "Hg10 mi
11:30 pm
Wed, Feb 22
75 °FClear.1 mph100%29.86 "Hg10 mi
11:00 pm75 °FClear.1 mph100%29.86 "Hg10 mi
10:30 pm75 °FClear.1 mph100%29.86 "Hg10 mi
10:00 pm77 °FClear.No wind94%29.86 "Hg10 mi
9:30 pm77 °FClear.No wind94%29.83 "Hg10 mi
9:00 pm77 °FPassing clouds.2 mph94%29.83 "HgN/A
8:30 pm77 °FPartly cloudy.5 mph94%29.83 "HgN/A
8:00 pm79 °FClear.2 mph89%29.83 "Hg10 mi
7:30 pm79 °FPassing clouds.2 mph89%29.80 "HgN/A
7:00 pm79 °FMostly cloudy.3 mph89%29.80 "HgN/A
6:30 pm81 °FMostly cloudy.3 mph84%29.80 "HgN/A
6:00 pm81 °FBroken clouds.6 mph84%29.80 "HgN/A
5:30 pm81 °FLight rain. Partly sunny.7 mph84%29.77 "HgN/A
5:00 pm82 °FThunderstorms. Partly sunny.7 mph79%29.77 "HgN/A
4:30 pm86 °FBroken clouds.7 mph66%29.77 "HgN/A
4:00 pm86 °FBroken clouds.9 mph66%29.77 "HgN/A
3:30 pm88 °FBroken clouds.10 mph66%29.77 "HgN/A
3:00 pm88 °FBroken clouds.12 mph70%29.77 "HgN/A
2:30 pm90 °FPartly sunny.9 mph67%29.80 "HgN/A
2:00 pm84 °FLight rain. Mostly cloudy.10 mph74%29.80 "HgN/A
1:30 pm86 °FPartly sunny.9 mph70%29.83 "HgN/A
1:00 pm86 °FBroken clouds.7 mph75%29.83 "HgN/A
12:30 pm84 °FPartly sunny.14 mph79%29.86 "HgN/A
12:00 pm88 °FScattered clouds.9 mph66%29.86 "HgN/A
11:30 am86 °FPartly sunny.10 mph70%29.89 "HgN/A
11:00 am84 °FPartly sunny.10 mph74%29.89 "HgN/A
10:30 am84 °FPartly sunny.9 mph70%29.89 "HgN/A
10:00 am84 °FBroken clouds.6 mph70%29.89 "HgN/A
9:30 am82 °FPassing clouds.5 mph74%29.89 "HgN/A
9:00 am81 °FPassing clouds.1 mph79%29.89 "HgN/A
8:30 am79 °FPassing clouds.3 mph84%29.89 "HgN/A
8:00 am75 °FSunny.3 mph94%29.86 "Hg10 mi
7:30 am73 °FSunny.No wind100%29.86 "Hg10 mi
7:00 am73 °FSunny.No wind100%29.83 "Hg10 mi
6:30 am73 °FClear.No wind100%29.83 "Hg10 mi
6:00 am75 °FClear.No wind94%29.80 "Hg10 mi
5:30 am75 °FClear.3 mph94%29.80 "Hg10 mi
5:00 am75 °FClear.No wind94%29.80 "Hg10 mi
4:30 am75 °FClear.No wind94%29.80 "Hg10 mi
4:00 am75 °FClear.2 mph94%29.80 "Hg10 mi
3:30 am75 °FPartly cloudy.No wind94%29.80 "HgN/A
3:00 am75 °FClear.No wind94%29.80 "Hg10 mi
2:30 am77 °FPartly cloudy.3 mph94%29.83 "HgN/A
2:00 am77 °FPartly cloudy.No wind89%29.83 "HgN/A
1:30 am77 °FMostly cloudy.1 mph89%29.83 "HgN/A
1:00 am77 °FPartly cloudy.2 mph89%29.83 "HgN/A
Weather by CustomWeather, © 2017

See weather overviewHow to use our weather pages